Home   Weather   Springfield   Past weeks

Flag for USA Past Weather in Springfield, Illinois, USA — Yesterday and Last 2 Weeks

Now
36 °F

Passing clouds.


Feels Like: 36 °F
Forecast: 33 / 56 °F
Wind: No wind

Location: Capital Airport

Current Time: Feb 27, 2017 at 3:13:00 am

Latest Report: Feb 27, 2017 at 1:52 am


Visibility: 10 mi

Pressure: 30.13 "Hg

Humidity: 82%

Dew Point: 31 °F

Location of SpringfieldLocation

Past Weather in Springfield — Graph

°F

Springfield Temperature Yesterday

Maximum temperature yesterday: 48 °F (at 12:52 pm)
Minimum temperature yesterday: 22 °F (at 1:52 am)
Average temperature yesterday: 37 °F

High & Low Weather Summary for the Past Weeks

 TemperatureHumidityPressure
High75 °F (Feb 20, 2:52 pm)100% (Feb 19, 1:33 am)30.43 "Hg (Feb 19, 1:33 am)
Low22 °F (Feb 13, 6:52 am)22% (Feb 17, 3:52 pm)29.42 "Hg (Feb 24, 5:52 am)
Average48 °F68%29.91 "Hg
* Reported Feb 12 1:42 am — Feb 27 1:52 am, Springfield, Weather by CustomWeather, © 2017

Note: Actual official high and low records may vary slightly from our data, if they occured in-between our weather recording intervals... More about our weather records

Advertising

Springfield Weather History for the Previous 24 Hours

Scroll right to see more
 ConditionsComfort  
Time TempWeatherWind HumidityBarometerVisibility
1:52 am
Mon, Feb 27
36 °FPassing clouds.No wind82%30.13 "Hg10 mi
12:52 am37 °FOvercast.5 mph82%30.13 "Hg10 mi
11:52 pm
Sun, Feb 26
38 °FOvercast.6 mph76%30.13 "Hg10 mi
10:52 pm39 °FPassing clouds.10 mph73%30.13 "Hg10 mi
9:52 pm40 °FClear.14 mph68%30.11 "Hg10 mi
8:52 pm40 °FClear.12 mph55%30.11 "Hg10 mi
7:52 pm40 °FClear.10 mph51%30.09 "Hg10 mi
6:52 pm42 °FClear.13 mph45%30.07 "Hg10 mi
5:52 pm43 °FClear.10 mph43%30.07 "Hg10 mi
4:52 pm45 °FSunny.14 mph44%30.07 "Hg10 mi
3:52 pm46 °FOvercast.12 mph42%30.07 "Hg10 mi
2:52 pm46 °FPartly sunny.18 mph34%30.06 "Hg10 mi
1:52 pm48 °FSunny.18 mph28%30.06 "Hg10 mi
12:52 pm48 °FSunny.22 mph29%30.07 "Hg10 mi
11:52 am46 °FSunny.21 mph31%30.10 "Hg10 mi
10:52 am44 °FSunny.20 mph34%30.11 "Hg10 mi
9:52 am40 °FSunny.17 mph40%30.11 "Hg10 mi
8:52 am36 °FSunny.15 mph46%30.11 "Hg10 mi
7:52 am32 °FSunny.15 mph52%30.11 "Hg10 mi
6:52 am30 °FSunny.12 mph54%30.10 "Hg10 mi
5:52 am28 °FClear.13 mph58%30.09 "Hg10 mi
4:52 am27 °FClear.13 mph61%30.10 "Hg10 mi
3:52 am24 °FClear.7 mph65%30.10 "Hg10 mi
Weather by CustomWeather, © 2017

See weather overviewHow to use our weather pages